FENGYUN 1C DEB, 30390

Orbit data source: Space-Track

FENGYUN 1C DEB, 30390 is space debris in SSO originally from a launch on Mon, 10 May 1999 UTC launched from the Taiyaun Space Center, China (TSC). Fengyun 1C debris stems from the Chinese weather satellite Fengyun-1C, which was intentionally destroyed by a Chinese anti-satellite missile in 2007. This event dramatically increased the amount of space debris, with thousands of trackable fragments posing hazards to satellites and human spaceflight. The Fengyun 1C debris cloud has become a focal point in discussions about space sustainability and the need for international regulations to prevent the creation of new debris.

Loading next visibility...
Identifier
30390, 1999-025ADD
Orbit
SSO
Country
Flag of CNCN / PRC
Related business
Manufacturer
Unknown
Mission
Spacecraft
Bus & Motor
Unknown
Mass
Unknown
Launch date (UTC)
1999-05-10 (27 years ago)
Launch vehicle
Unknown
Launch site
Taiyaun Space Center, China (TSC)
Object type
Payload
Rocket body
Debris
Shape & HBR
Unknown shape, 0.1 m
Radar Cross Section
Small (<0.1 m²)

Expand to show TLE details & history
Last TLE update: 4 hours ago

TLE from 4 hours ago
0 FENGYUN 1C DEB
1 30390U 99025ADD 26071.74233471  .00004467  00000-0  16890-2 0  9994
2 30390  98.8137 161.1474 0065725 259.5236 264.4087 14.30566553986703
Epoch: 2026-03-12T17:48Z
TLE epoch observation values (Epoch: 2026-03-12T17:48:57.718Z)
Latitude
16.59701°
Longitude
-93.84619°
Altitude
797.021 km
Speed
7.454 km/s
True Right ascension
22h 55m 07s
True Declination
16° 30' 13"
Sunlit
Object was in daylight at epoch
Visualization orbit readout
Latitude
Unknown
Longitude
Unknown
Altitude
Unknown
Speed
Unknown
Apparent Right ascension
Unknown
Apparent Declination
Unknown
Sunlit
N/A
Visualization observer readout
Local Sidereal Time
02:17:42
Azimuth
Unknown
Elevation
Unknown
Doppler factor
Unknown
Orbital elements
Apogee altitude
834.08 km
Perigee altitude
739.894 km
Semi-major axis
7,165.124 km
Eccentricity
0.00657
Inclination
98.8137°
RAAN
161.1474°
Arg. of periapsis
259.5236°
True anomaly
263.65975°
Mean anomaly
264.4087°
Eccentric anomaly
264.03416°
Mean motion
3.57855 °/min
Orbital period
100.6 mins
BSTAR
0.001689
Loading maneuver chart data...
Computing Atmospheric mass density...

Documentation

Showing up to 5 results
|